Location: Valdosta
(30.8330°N, 83.2790°W)
Time: 17:45:55
(UTC-05:00)

Daily predictions for brighter satellites

Satellite Brightness Start Highest point End
(mag) Time Altitude Azimuth Time Altitude Azimuth Time Altitude Azimuth
DELTA 2 R/B (1) 3.7 18:53:25 10° WNW 18:59:01 72° NNE 19:04:37 10° ESE
Hubble Space Telescope 1.4 18:55:35 10° WSW 18:59:32 45° SSE 19:03:29 10° E
Cosmos 2322 3.9 18:54:10 10° N 18:59:45 54° ENE 19:05:17 10° SE
BREEZE-M DEB (TANK) 3.5 18:55:16 10° SW 19:01:52 60° NW 19:04:36 10° NE
Cosmos 1850 Rocket 4.0 18:57:41 10° SSW 19:02:58 86° ESE 19:08:19 10° NNE
SJ-6B 3.3 19:02:59 10° SE 19:06:43 38° ENE 19:10:22 10° N
CZ-3C R/B 3.0 18:56:39 10° WSW 19:08:37 32° SSW 19:12:11 10° SE
ALOS 3.0 19:06:15 10° SE 19:10:21 31° ENE 19:14:28 10° N
Meteor 1-19 Rocket 4.3 19:04:45 10° N 19:10:27 65° E 19:16:12 10° SSE
Cosmos 2297 Rocket 3.6 19:07:41 10° SE 19:11:03 16° E 19:14:23 10° ENE
H-2A R/B 4.2 19:11:05 10° ESE 19:13:35 17° ENE 19:16:05 10° NNE
Cosmos 2237 Rocket 4.1 19:12:53 10° NE 19:13:51 10° NE 19:14:36 10° ENE
Cosmos 2237 4.4 19:12:51 10° N 19:18:25 50° ENE 19:23:55 10° SE
COSMOS 2428 3.2 19:13:14 10° N 19:18:31 38° ENE 19:23:47 10° SE
Okean 1-7 Rocket 3.8 19:17:17 10° N 19:21:40 49° E 19:25:58 10° SSE
Meteor 2-4 Rocket 3.6 19:19:03 10° N 19:24:26 59° E 19:29:42 10° SSE
Cosmos 2219 Rocket 3.2 19:22:07 10° N 19:26:35 24° ENE 19:28:57 18° E
Cosmos 2360 Rocket 2.4 19:21:15 10° NNW 19:26:54 74° WSW 19:32:31 10° SSE
Tiangong 2 3.6 19:25:21 10° W 19:27:39 19° SW 19:29:57 10° S
Cosmos 2219 3.8 19:23:34 10° SSW 19:29:14 62° WNW 19:34:56 10° NNE
Meteor 1-23 Rocket 4.3 19:24:35 10° N 19:30:14 54° E 19:35:47 10° SSE
OAO 3 Rocket 3.5 19:25:29 10° SW 19:30:20 56° SSE 19:33:19 22° E
FREGAT/IRIS 2.7 19:27:26 10° S 19:30:29 83° W 19:33:35 10° NNW
Okean 2 4.2 19:27:34 10° NNE 19:31:13 29° E 19:34:10 14° SE
Cosmos 2227 Rocket 2.7 19:26:10 10° SSE 19:31:15 36° ESE 19:36:21 10° NE
Atlas Centaur 2 3.5 19:24:53 10° SW 19:31:52 36° SSE 19:35:46 20° ESE
Cosmos 1536 3.7 19:32:58 10° SSW 19:36:51 51° W 19:40:44 10° N
Helios 1B rocket 3.1 19:34:33 10° NE 19:38:16 32° E 19:41:58 10° SSE
Cosmos 1455 Rocket 3.6 19:39:45 10° SSE 19:43:42 33° E 19:47:38 10° NNE
Resurs 01 Rocket 1.5 19:52:36 10° SSE 19:57:00 80° ENE 20:01:24 10° N
SEDSat Delta rocket 4.4 19:56:13 10° SW 20:02:33 45° SSE 20:04:21 36° ESE
Cosmos 1610 Rocket 4.4 19:56:38 10° S 20:02:52 89° E 20:09:04 10° N
ATLAS 2A CENTAUR R/B 3.1 20:04:13 10° WSW 20:07:14 35° S 20:10:06 25° SE
Resurs 1-3 3.5 20:03:01 10° SSE 20:07:24 88° E 20:11:48 10° NNW
FENGYUN 3A 4.1 20:03:03 10° S 20:08:23 64° WSW 20:13:47 10° NNW
Cosmos 2333 Rocket 2.4 20:07:10 10° N 20:12:44 49° ENE 20:12:59 49° ENE
Cosmos 1980 4.3 20:08:27 10° N 20:12:50 36° NE 20:12:50 36° NE
GPS 2-04 Rocket1 3.5 20:09:57 10° WNW 20:14:03 43° N 20:14:12 42° N
GEOS 3 Rocket 4.4 20:09:30 10° NNE 20:14:35 50° NW 20:19:40 10° SW
OTV 4 3.1 20:21:20 10° WNW 20:22:38 19° NW 20:22:38 19° NW
Cosmos 1892 Rocket 3.6 20:21:47 10° N 20:26:08 74° W 20:26:08 74° W
Spot 2 Rocket 4.2 20:22:08 10° S 20:27:02 52° W 20:31:59 10° NNW
Cosmos 468 Rocket 3.8 20:23:36 10° NNW 20:28:51 83° ENE 20:28:51 83° ENE
Skynet4D Del rocket 3.7 20:24:36 10° WSW 20:29:45 56° S 20:29:45 56° S
USA 229 DEB 3.8 20:25:07 10° NNW 20:32:19 84° WSW 20:35:24 38° SSE
USA 229 3.8 20:25:12 10° NNW 20:32:25 84° WSW 20:35:26 39° SSE
Cosmos 2082 3.9 20:27:44 10° SSW 20:33:25 68° WNW 20:37:59 16° NNE
Hubble Space Telescope 2.3 20:36:31 10° W 20:38:56 33° WSW 20:38:56 33° WSW
Cosmos 2297 Rocket 2.9 20:49:06 10° SW 20:54:34 50° WNW 20:56:25 36° NNW
Nadezhda 3 Rocket 4.4 20:51:44 10° NNW 20:57:47 60° W 20:59:43 42° SSW
Cosmos 2237 Rocket 3.1 20:52:53 10° NNW 20:56:29 41° NNW 20:56:29 41° NNW
NOSS 0 Rocket 4.2 20:53:22 10° NNW 20:59:13 64° W 20:59:13 64° W
NOSS 3-1 (C) 4.1 20:55:16 10° NNW 21:02:16 66° NNE 21:02:16 66° NNE
H-2A R/B 3.5 21:02:13 10° SW 21:42:31 11° E 21:46:17 10° E
H-2A R/B 3.5 21:02:12 10° SW 21:42:31 11° E 21:46:17 10° E
H-2A R/B 3.5 21:02:13 10° SW 21:42:30 11° E 21:46:17 10° E
H-2A R/B 3.5 21:02:13 10° SW 21:42:32 11° E 21:46:17 10° E
H-2A R/B 3.5 21:02:13 10° SW 21:42:31 11° E 21:46:18 10° E
Cosmos 2219 Rocket 3.4 21:05:28 10° NW 21:10:32 36° WSW 21:10:47 36° WSW
Cosmos 2227 Rocket 4.2 21:10:46 10° WSW 21:15:17 24° WNW 21:19:51 10° N
Atlas Centaur 2 3.6 21:14:07 10° WSW 21:18:27 37° WSW 21:18:27 37° WSW
ATLAS 3B CENTAUR R/B 4.5 21:50:04 10° WSW 22:09:41 59° SW 22:09:41 59° SW
